| time (UTC) | temp F | wind direction | speed MPH | gust MPH | rain 1hr in | rain 24hr in | rain mn in | humidity % | barometer mb |
| 20260906111952 | 73 | 260 | 0.0 | 0.0 | 0.00 | 0.00 | 0.00 | ||
| 20260906111902 | 73 | 260 | 0.0 | 0.0 | 0.00 | 0.00 | 0.00 | ||
| 20260906110407 | 0 | 146 | 850.0 | 0.0 | 0.00 | 0.00 | 0.00 | ||
| 20260906110404 | 72 | 260 | 0.0 | 0.0 | 0.00 | 0.00 | 0.00 | ||
| 20260906104910 | 73 | 260 | 0.0 | 0.0 | 0.00 | 0.00 | 0.00 | ||
| 20260906103416 | 73 | 260 | 0.0 | 0.0 | 0.00 | 0.00 | 0.00 | ||
| 20260906101949 | 73 | 325 | 3.0 | 2.0 | 0.00 | 0.00 | 0.00 | ||
| 20260906101922 | 0 | 146 | 850.0 | 0.0 | 0.00 | 0.00 | 0.00 | ||
| 20260906101917 | 73 | 325 | 3.0 | 2.0 | 0.00 | 0.00 | 0.00 | ||
| 20260906100423 | 73 | 311 | 0.0 | 0.0 | 0.00 | 0.00 | 0.00 | ||
| 20260906094929 | 73 | 326 | 3.0 | 4.0 | 0.00 | 0.00 | 0.00 | ||
| 20260906093436 | 0 | 146 | 850.0 | 0.0 | 0.00 | 0.00 | 0.00 | ||
| 20260906093433 | 72 | 329 | 2.0 | 2.0 | 0.00 | 0.00 | 0.00 | ||
| 20260906091936 | 72 | 346 | 2.0 | 2.0 | 0.00 | 0.00 | 0.00 | ||
| 20260906090516 | 73 | 349 | 2.0 | 1.0 | 0.00 | 0.00 | 0.00 | ||
| 20260906090442 | 73 | 349 | 2.0 | 1.0 | 0.00 | 0.00 | 0.00 | ||
| 20260906084944 | 73 | 309 | 3.0 | 3.0 | 0.00 | 0.00 | 0.00 | ||
| 20260906081957 | 73 | 342 | 1.0 | 2.0 | 0.00 | 0.00 | 0.00 | ||
| 20260906080501 | 0 | 146 | 850.0 | 0.0 | 0.00 | 0.00 | 0.00 | ||
| 20260906080458 | 73 | 315 | 2.0 | 3.0 | 0.00 | 0.00 | 0.00 | ||
| 20260906075004 | 73 | 307 | 4.0 | 4.0 | 0.00 | 0.00 | 0.00 | ||
| 20260906073509 | 73 | 316 | 3.0 | 4.0 | 0.00 | 0.00 | 0.00 | ||
| 20260906072015 | 0 | 146 | 850.0 | 0.0 | 0.00 | 0.00 | 0.00 | ||
| 20260906072011 | 74 | 319 | 3.0 | 4.0 | 0.00 | 0.00 | 0.00 | ||
| 20260906070601 | 74 | 335 | 2.0 | 2.0 | 0.00 | 0.00 | 0.00 | ||
| 20260906070517 | 74 | 335 | 2.0 | 2.0 | 0.00 | 0.00 | 0.00 | ||
| 20260906065022 | 74 | 349 | 1.0 | 3.0 | 0.00 | 0.00 | 0.00 | ||
| 20260906063528 | 0 | 146 | 850.0 | 0.0 | 0.00 | 0.00 | 0.00 | ||
| 20260906063525 | 75 | 346 | 2.0 | 2.0 | 0.00 | 0.00 | 0.00 | ||
| 20260906062032 | 75 | 304 | 5.0 | 5.0 | 0.00 | 0.00 | 0.00 | ||
| 20260906060536 | 76 | 345 | 2.0 | 2.0 | 0.00 | 0.00 | 0.00 | ||
| 20260906055043 | 0 | 146 | 850.0 | 0.0 | 0.00 | 0.00 | 0.00 | ||
| 20260906055038 | 76 | 335 | 0.0 | 0.0 | 0.00 | 0.00 | 0.00 | ||
| 20260906053545 | 77 | 295 | 3.0 | 3.0 | 0.00 | 0.00 | 0.00 | ||
| 20260906052050 | 77 | 328 | 3.0 | 1.0 | 0.00 | 0.00 | 0.00 | ||
| 20260906050637 | 77 | 291 | 6.0 | 6.0 | 0.00 | 0.00 | 0.00 | ||
| 20260906050556 | 0 | 146 | 850.0 | 0.0 | 0.00 | 0.00 | 0.00 | ||
| 20260906050551 | 77 | 291 | 6.0 | 6.0 | 0.00 | 0.00 | 0.00 | ||
| 20260906045204 | 77 | 315 | 6.0 | 6.0 | 0.00 | 0.00 | 0.00 | ||
| 20260906045057 | 77 | 315 | 6.0 | 6.0 | 0.00 | 0.00 | 0.00 | ||
| 20260906043605 | 78 | 308 | 3.0 | 5.0 | 0.00 | 0.00 | 0.00 | ||
| 20260906042229 | 0 | 146 | 850.0 | 0.0 | 0.00 | 0.00 | 0.00 | ||
| 20260906042108 | 0 | 146 | 850.0 | 0.0 | 0.00 | 0.00 | 0.00 | ||
| 20260906042106 | 78 | 93 | 0.0 | 0.0 | 0.00 | 0.00 | 0.00 | ||
| 20260906040643 | 78 | 93 | 0.0 | 0.0 | 0.00 | 0.00 | 0.00 | ||
| 20260906040612 | 78 | 93 | 0.0 | 0.0 | 0.00 | 0.00 | 0.00 | ||
| 20260906033706 | 79 | 319 | 0.0 | 0.0 | 0.00 | 0.00 | 0.00 | ||
| 20260906033622 | 0 | 146 | 850.0 | 0.0 | 0.00 | 0.00 | 0.00 | ||
| 20260906033618 | 79 | 319 | 0.0 | 0.0 | 0.00 | 0.00 | 0.00 | ||
| 20260906032125 | 80 | 333 | 1.0 | 1.0 | 0.00 | 0.00 | 0.00 | ||
| 20260906030702 | 81 | 326 | 3.0 | 2.0 | 0.00 | 0.00 | 0.00 | ||
| 20260906030630 | 81 | 326 | 3.0 | 2.0 | 0.00 | 0.00 | 0.00 | ||
| 20260906025223 | 0 | 146 | 850.0 | 0.0 | 0.00 | 0.00 | 0.00 | ||
| 20260906025135 | 0 | 146 | 850.0 | 0.0 | 0.00 | 0.00 | 0.00 | ||
| 20260906025133 | 81 | 108 | 0.0 | 0.0 | 0.00 | 0.00 | 0.00 | ||
| 20260906023638 | 82 | 288 | 2.0 | 2.0 | 0.00 | 0.00 | 0.00 | ||
| 20260906022144 | 81 | 301 | 3.0 | 3.0 | 0.00 | 0.00 | 0.00 | ||
| 20260906020648 | 0 | 146 | 850.0 | 0.0 | 0.00 | 0.00 | 0.00 | ||
| 20260906020646 | 81 | 263 | 1.0 | 0.0 | 0.00 | 0.00 | 0.00 | ||
| 20260906015230 | 81 | 315 | 2.0 | 2.0 | 0.00 | 0.00 | 0.00 | ||
| 20260906015151 | 81 | 315 | 2.0 | 2.0 | 0.00 | 0.00 | 0.00 | ||
| 20260906013657 | 82 | 302 | 6.0 | 6.0 | 0.00 | 0.00 | 0.00 | ||
| 20260906012238 | 0 | 146 | 850.0 | 0.0 | 0.00 | 0.00 | 0.00 | ||
| 20260906012202 | 0 | 146 | 850.0 | 0.0 | 0.00 | 0.00 | 0.00 | ||
| 20260906012159 | 82 | 312 | 7.0 | 7.0 | 0.00 | 0.00 | 0.00 | ||
| 20260906010807 | 83 | 307 | 4.0 | 5.0 | 0.00 | 0.00 | 0.00 | ||
| 20260906010705 | 83 | 307 | 4.0 | 5.0 | 0.00 | 0.00 | 0.00 | ||
| 20260906005804 | 83 | 231 | 0.0 | 0.0 | 0.00 | 0.00 | 0.00 | ||
| 20260906005302 | 83 | 231 | 0.0 | 0.0 | 0.00 | 0.00 | 0.00 | ||
| 20260906005211 | 83 | 231 | 0.0 | 0.0 | 0.00 | 0.00 | 0.00 | ||
| 20260906003926 | 83 | 285 | 1.0 | 2.0 | 0.00 | 0.00 | 0.00 | ||
| 20260906003715 | 0 | 146 | 850.0 | 0.0 | 0.00 | 0.00 | 0.00 | ||
| 20260906003712 | 83 | 285 | 1.0 | 2.0 | 0.00 | 0.00 | 0.00 | ||
| 20260906002252 | 84 | 263 | 0.0 | 0.0 | 0.00 | 0.00 | 0.00 | ||
| 20260906002218 | 84 | 263 | 0.0 | 0.0 | 0.00 | 0.00 | 0.00 | ||
| 20260906000724 | 84 | 231 | 2.0 | 2.0 | 0.00 | 0.00 | 0.00 | ||
| 20260905235228 | 0 | 146 | 850.0 | 0.0 | 0.00 | 0.00 | 0.00 | ||
| 20260905235226 | 84 | 210 | 1.0 | 1.0 | 0.00 | 0.00 | 0.00 | ||
| 20260905233823 | 85 | 249 | 3.0 | 2.0 | 0.00 | 0.00 | 0.00 | ||
| 20260905233731 | 85 | 249 | 3.0 | 2.0 | 0.00 | 0.00 | 0.00 | ||
| 20260905232237 | 85 | 287 | 3.0 | 3.0 | 0.00 | 0.00 | 0.00 | ||
| 20260905230819 | 0 | 146 | 850.0 | 0.0 | 0.00 | 0.00 | 0.00 | ||
| 20260905230741 | 0 | 146 | 850.0 | 0.0 | 0.00 | 0.00 | 0.00 | ||
| 20260905225246 | 87 | 201 | 3.0 | 2.0 | 0.00 | 0.00 | 0.00 | ||
| 20260905222433 | 0 | 146 | 850.0 | 0.0 | 0.00 | 0.00 | 0.00 | ||
| 20260905222255 | 0 | 146 | 850.0 | 0.0 | 0.00 | 0.00 | 0.00 | ||
| 20260905222252 | 87 | 249 | 5.0 | 6.0 | 0.00 | 0.00 | 0.00 | ||
| 20260905220758 | 88 | 228 | 2.0 | 5.0 | 0.00 | 0.00 | 0.00 | ||
| 20260905220556 | 0 | 146 | 850.0 | 0.0 | 0.00 | 0.00 | 0.00 | ||
| 20260905213808 | 0 | 146 | 850.0 | 0.0 | 0.00 | 0.00 | 0.00 | ||
| 20260905213806 | 89 | 187 | 5.0 | 5.0 | 0.00 | 0.00 | 0.00 | ||
| 20260905210853 | 90 | 207 | 4.0 | 6.0 | 0.00 | 0.00 | 0.00 | ||
| 20260905210817 | 90 | 207 | 4.0 | 6.0 | 0.00 | 0.00 | 0.00 | ||
| 20260905205526 | 0 | 146 | 850.0 | 0.0 | 0.00 | 0.00 | 0.00 | ||
| 20260905205322 | 0 | 146 | 850.0 | 0.0 | 0.00 | 0.00 | 0.00 | ||
| 20260905203824 | 92 | 203 | 1.0 | 5.0 | 0.00 | 0.00 | 0.00 | ||
| 20260905202413 | 91 | 269 | 3.0 | 3.0 | 0.00 | 0.00 | 0.00 | ||
| 20260905202330 | 91 | 269 | 3.0 | 3.0 | 0.00 | 0.00 | 0.00 | ||
| 20260905201355 | 0 | 146 | 850.0 | 0.0 | 0.00 | 0.00 | 0.00 | ||
| 20260905200835 | 0 | 146 | 850.0 | 0.0 | 0.00 | 0.00 | 0.00 | ||
| 20260905200832 | 92 | 274 | 3.0 | 3.0 | 0.00 | 0.00 | 0.00 | ||
| 20260905195425 | 91 | 217 | 2.0 | 1.0 | 0.00 | 0.00 | 0.00 | ||
| 20260905195338 | 91 | 217 | 2.0 | 1.0 | 0.00 | 0.00 | 0.00 | ||
| 20260905194024 | 91 | 311 | 4.0 | 3.0 | 0.00 | 0.00 | 0.00 | ||
| 20260905193844 | 91 | 311 | 4.0 | 3.0 | 0.00 | 0.00 | 0.00 | ||
| 20260905192347 | 92 | 332 | 1.0 | 1.0 | 0.00 | 0.00 | 0.00 | ||
| 20260905190932 | 92 | 259 | 3.0 | 5.0 | 0.00 | 0.00 | 0.00 | ||
| 20260905190851 | 92 | 259 | 3.0 | 5.0 | 0.00 | 0.00 | 0.00 | ||
| 20260905185524 | 93 | 291 | 3.0 | 5.0 | 0.00 | 0.00 | 0.00 | ||
| 20260905185357 | 93 | 291 | 3.0 | 5.0 | 0.00 | 0.00 | 0.00 | ||
| 20260905184323 | 0 | 146 | 850.0 | 0.0 | 0.00 | 0.00 | 0.00 | ||
| 20260905183902 | 0 | 146 | 850.0 | 0.0 | 0.00 | 0.00 | 0.00 | ||
| 20260905183900 | 94 | 141 | 3.0 | 1.0 | 0.00 | 0.00 | 0.00 | ||
| 20260905182715 | 93 | 183 | 4.0 | 4.0 | 0.00 | 0.00 | 0.00 | ||
| 20260905182405 | 93 | 183 | 4.0 | 4.0 | 0.00 | 0.00 | 0.00 | ||
| 20260905180951 | 91 | 204 | 2.0 | 4.0 | 0.00 | 0.00 | 0.00 | ||
| 20260905180910 | 91 | 204 | 2.0 | 4.0 | 0.00 | 0.00 | 0.00 | ||
| 20260905175415 | 0 | 146 | 850.0 | 0.0 | 0.00 | 0.00 | 0.00 | ||
| 20260905175413 | 92 | 214 | 2.0 | 3.0 | 0.00 | 0.00 | 0.00 | ||
| 20260905173918 | 90 | 90 | 2.0 | 1.0 | 0.00 | 0.00 | 0.00 | ||
| 20260905172424 | 90 | 283 | 4.0 | 3.0 | 0.00 | 0.00 | 0.00 | ||
| 20260905170929 | 0 | 146 | 850.0 | 0.0 | 0.00 | 0.00 | 0.00 | ||
| 20260905170926 | 90 | 155 | 2.0 | 1.0 | 0.00 | 0.00 | 0.00 | ||
| 20260905165432 | 90 | 120 | 3.0 | 2.0 | 0.00 | 0.00 | 0.00 | ||
| 20260905163938 | 90 | 38 | 3.0 | 4.0 | 0.00 | 0.00 | 0.00 | ||
| 20260905162442 | 0 | 146 | 850.0 | 0.0 | 0.00 | 0.00 | 0.00 | ||
| 20260905162440 | 88 | 276 | 2.0 | 5.0 | 0.00 | 0.00 | 0.00 | ||
| 20260905161051 | 87 | 55 | 3.0 | 1.0 | 0.00 | 0.00 | 0.00 | ||
| 20260905160945 | 87 | 55 | 3.0 | 1.0 | 0.00 | 0.00 | 0.00 | ||
| 20260905155451 | 88 | 253 | 3.0 | 2.0 | 0.00 | 0.00 | 0.00 | ||
| 20260905153956 | 0 | 146 | 850.0 | 0.0 | 0.00 | 0.00 | 0.00 | ||
| 20260905153953 | 86 | 222 | 3.0 | 4.0 | 0.00 | 0.00 | 0.00 | ||
| 20260905152459 | 86 | 163 | 3.0 | 2.0 | 0.00 | 0.00 | 0.00 | ||
| 20260905151004 | 86 | 211 | 1.0 | 3.0 | 0.00 | 0.00 | 0.00 | ||
| 20260905145509 | 0 | 146 | 850.0 | 0.0 | 0.00 | 0.00 | 0.00 | ||
| 20260905144012 | 83 | 235 | 2.0 | 1.0 | 0.00 | 0.00 | 0.00 | ||
| 20260905142518 | 84 | 210 | 3.0 | 5.0 | 0.00 | 0.00 | 0.00 | ||
| 20260905141023 | 0 | 146 | 850.0 | 0.0 | 0.00 | 0.00 | 0.00 | ||
| 20260905141020 | 83 | 32 | 0.0 | 0.0 | 0.00 | 0.00 | 0.00 | ||
| 20260905132605 | 80 | 30 | 0.0 | 0.0 | 0.00 | 0.00 | 0.00 | ||
| 20260905132533 | 80 | 30 | 0.0 | 0.0 | 0.00 | 0.00 | 0.00 | ||
| 20260905131039 | 79 | 63 | 0.0 | 0.0 | 0.00 | 0.00 | 0.00 | ||
| 20260905125545 | 78 | 297 | 0.0 | 0.0 | 0.00 | 0.00 | 0.00 | ||
| 20260905124049 | 0 | 146 | 850.0 | 0.0 | 0.00 | 0.00 | 0.00 | ||
| 20260905122552 | 77 | 338 | 0.0 | 0.0 | 0.00 | 0.00 | 0.00 | ||
| 20260905121138 | 76 | 139 | 0.0 | 0.0 | 0.00 | 0.00 | 0.00 | ||
| 20260905121058 | 76 | 139 | 0.0 | 0.0 | 0.00 | 0.00 | 0.00 | ||
| 20260905115736 | 0 | 146 | 850.0 | 0.0 | 0.00 | 0.00 | 0.00 | ||
| 20260905115603 | 0 | 146 | 850.0 | 0.0 | 0.00 | 0.00 | 0.00 | ||
| 20260905115559 | 75 | 139 | 0.0 | 0.0 | 0.00 | 0.00 | 0.00 | ||
| 20260905114105 | 75 | 179 | 0.0 | 0.0 | 0.00 | 0.00 | 0.00 | ||
| 20260905112611 | 74 | 179 | 0.0 | 0.0 | 0.00 | 0.00 | 0.00 |